Location: Asheville, NC
(35.6000°N, 82.5500°W)
Time: 11:51:22
(UTC-04:00)

BEESAT - Visible Passes

Search period start: 21 June 2018 00:00
Search period end: 01 July 2018 00:00
Orbit: 701 x 709 km, 98.5° (Epoch: 20 June)

Date Brightness Start Highest point End Pass type
(mag) Time Alt. Az. Time Alt. Az. Time Alt. Az.
21 Jun ? 03:36:26 10° ESE 03:39:32 17° ENE 03:42:38 10° NNE visible
21 Jun ? 05:12:21 10° S 05:16:54 44° W 05:21:28 10° NNW visible
22 Jun ? 04:18:12 10° SE 04:22:46 47° ENE 04:27:21 10° N visible
23 Jun ? 03:26:47 10° E 03:29:04 13° ENE 03:31:22 10° NE visible
23 Jun ? 05:01:36 10° S 05:06:17 58° W 05:11:01 10° NNW visible
24 Jun ? 04:07:53 10° SE 04:12:14 36° ENE 04:16:36 10° N visible
24 Jun ? 05:46:36 10° SW 05:50:03 20° W 05:53:31 10° NW visible
25 Jun ? 03:18:01 10° ENE 03:18:37 10° ENE 03:19:14 10° NE visible
25 Jun ? 04:50:55 10° S 04:55:41 77° WSW 05:00:30 10° NNW visible
26 Jun ? 03:57:40 10° SE 04:01:44 28° ENE 04:05:47 10° N visible
26 Jun ? 05:35:27 10° SSW 05:39:24 26° W 05:43:22 10° NW visible
27 Jun ? 04:40:20 10° SSE 04:45:06 82° ENE 04:49:54 10° N visible
28 Jun ? 03:47:35 10° ESE 03:51:14 22° ENE 03:54:52 10° NNE visible
28 Jun ? 05:24:27 10° SSW 05:28:45 33° W 05:33:04 10° NNW visible
29 Jun ? 04:29:50 10° SSE 04:34:32 62° ENE 04:39:16 10° N visible
30 Jun ? 03:37:40 10° ESE 03:40:45 17° ENE 03:43:49 10° NNE visible
30 Jun ? 05:13:34 10° S 05:18:07 44° W 05:22:41 10° NNW visible
